This demonstration page uses our WeatherBlox Daily Observations layout. Learn more.

40.92945, -100.16068

Hourly Observations for February 6, 2019

Temp ( °F °C ) Dew Point ( °F °C ) Humidity (%) Winds ( mph kmh ) Pressure ( in mb ) Visibility ( mi km ) Precip ( " mm )
12:15 am 00:15 Cloudy 17 -8.3 6 -14.4 62 62 E 8 13 30.08 1019 10 16.0934 N/A
12:35 am 00:35 Cloudy 17 -8.5 6 -14.4 63 63 E 7 11 30.08 1019 10 16.0934 N/A
12:55 am 00:55 Cloudy 17 -8.5 6 -14.5 62 62 E 9 15 30.08 1019 10 16.0934 N/A
1:15 am 01:15 Cloudy 17 -8.6 6 -14.5 63 63 ESE 6 9 30.07 1018 10 16.0934 N/A
1:35 am 01:35 Cloudy 17 -8.5 6 -14.2 64 64 E 7 11 30.06 1018 10 16.0934 N/A
1:55 am 01:55 Cloudy 17 -8.6 7 -14.1 65 65 E 8 13 30.06 1018 10 16.0934 N/A
2:15 am 02:15 Cloudy 17 -8.6 6 -14.2 64 64 E 7 11 30.06 1018 10 16.0934 N/A
2:35 am 02:35 Cloudy 17 -8.6 6 -14.3 64 64 E 6 9 30.06 1018 10 16.0934 N/A
2:55 am 02:55 Cloudy 16 -8.7 6 -14.3 64 64 E 7 11 30.06 1018 10 16.0934 N/A
3:15 am 03:15 Cloudy 16 -8.8 6 -14.5 64 64 E 6 9 30.08 1019 10 16.0934 N/A
3:35 am 03:35 Cloudy 16 -9 6 -14.3 66 66 ENE 8 13 30.08 1019 10 16.0934 N/A
3:55 am 03:55 Cloudy 16 -9 7 -14 67 67 ENE 7 11 30.08 1019 10 16.0934 N/A
4:15 am 04:15 Cloudy 16 -9.1 8 -13.5 71 71 E 7 11 30.08 1019 10 16.0934 N/A
4:35 am 04:35 Cloudy 15 -9.2 8 -13.4 72 72 E 6 9 30.07 1018 10 16.0934 N/A
4:55 am 04:55 Cloudy 15 -9.4 7 -13.7 71 71 ENE 7 11 30.07 1018 10 16.0934 N/A
5:15 am 05:15 Cloudy 15 -9.4 7 -14 70 70 ENE 9 15 30.06 1018 10 16.0934 N/A
5:35 am 05:35 Cloudy 15 -9.5 6 -14.4 68 68 ENE 9 15 30.07 1018 10 16.0934 N/A
5:55 am 05:55 Cloudy 12 -11.1 4 -15.8 69 69 ENE 14 22 30.11 1020 10 16.0934 N/A
6:15 am 06:15 Cloudy 11 -11.5 2 -16.4 67 67 ENE 14 22 30.12 1020 10 16.0934 N/A
6:35 am 06:35 Cloudy 10 -12 2 -16.5 69 69 ENE 10 17 30.12 1020 10 16.0934 N/A
6:55 am 06:55 Cloudy 10 -12.1 2 -16.5 70 70 NE 10 17 30.13 1020 10 16.0934 N/A
7:15 am 07:15 Cloudy 10 -12 2 -16.5 69 69 ENE 12 19 30.13 1020 10 16.0934 N/A
7:35 am 07:35 Cloudy 10 -12 2 -16.5 69 69 NE 12 19 30.14 1021 10 16.0934 N/A
7:55 am 07:55 Cloudy 10 -12.1 2 -16.4 71 71 NE 9 15 30.15 1021 10 16.0934 N/A
8:15 am 08:15 Cloudy 10 -12 3 -16.3 71 71 NE 12 19 30.16 1021 10 16.0934 N/A
8:35 am 08:35 Cloudy 10 -12.2 3 -16.2 72 72 NNE 13 20 30.16 1021 10 16.0934 N/A
8:55 am 08:55 Cloudy 10 -12 4 -15.8 74 74 NNE 14 22 30.17 1022 10 16.0934 N/A
9:15 am 09:15 Cloudy 10 -12 3 -16.1 72 72 NNE 14 22 30.17 1022 10 16.0934 N/A
9:35 am 09:35 Cloudy with Light Snow 11 -11.9 4 -15.6 74 74 NNE 14 22 30.17 1022 7 11.26538 N/A
9:55 am 09:55 Cloudy with Light Snow 10 -12 4 -15.6 75 75 NE 13 20 30.16 1021 7 11.26538 N/A
10:15 am 10:15 Cloudy with Light Snow 11 -11.9 4 -15.3 76 76 N 12 19 30.17 1022 7 11.26538 N/A
10:35 am 10:35 Cloudy with Light Snow 11 -11.7 4 -15.3 75 75 NNE 13 20 30.17 1022 7 11.26538 N/A
10:55 am 10:55 Cloudy with Light Snow 11 -11.7 4 -15.3 75 75 NE 13 20 30.17 1022 7 11.26538 N/A
11:15 am 11:15 Cloudy with Light Snow 11 -11.5 5 -15 76 76 NE 10 17 30.17 1022 5 8.0467 N/A
11:35 am 11:35 Cloudy with Light Snow 12 -11.3 5 -14.9 75 75 NNE 10 17 30.17 1022 5 8.0467 N/A
11:55 am 11:55 Cloudy with Light Snow 12 -11.2 5 -14.9 74 74 NNE 10 17 30.17 1022 5 8.0467 N/A
12:15 pm 12:15 Cloudy with Light Snow 12 -10.9 6 -14.6 74 74 NNE 10 17 30.16 1021 5 8.0467 N/A
12:35 pm 12:35 Cloudy with Light Snow 13 -10.8 6 -14.6 74 74 NE 12 19 30.16 1021 5 8.0467 N/A
12:55 pm 12:55 Cloudy with Light Snow 13 -10.6 6 -14.5 73 73 NE 10 17 30.14 1021 7 11.26538 N/A
1:15 pm 13:15 Cloudy with Light Snow 13 -10.5 6 -14.4 73 73 NNE 12 19 30.13 1020 7 11.26538 N/A
1:35 pm 13:35 Cloudy with Light Snow 14 -10.1 7 -14.1 73 73 NNE 12 19 30.12 1020 10 16.0934 N/A
1:55 pm 13:55 Cloudy 14 -10 7 -14.1 72 72 NNE 15 24 30.11 1020 10 16.0934 N/A
2:15 pm 14:15 Cloudy 14 -10 6 -14.3 71 71 NNE 15 24 30.1 1019 10 16.0934 N/A
2:35 pm 14:35 Cloudy 15 -9.7 7 -14.1 71 71 NNE 14 22 30.1 1019 10 16.0934 N/A
2:55 pm 14:55 Cloudy 15 -9.6 7 -14 71 71 NNE 13 20 30.1 1019 10 16.0934 N/A
3:15 pm 15:15 Cloudy 15 -9.7 7 -14.1 71 71 NNE 12 19 30.11 1020 10 16.0934 N/A
3:35 pm 15:35 Cloudy 15 -9.6 7 -14.1 70 70 NNE 10 17 30.11 1019 10 16.0934 N/A
3:55 pm 15:55 Cloudy 14 -9.8 6 -14.2 71 71 NNE 13 20 30.12 1020 10 16.0934 N/A
4:15 pm 16:15 Cloudy 14 -9.8 6 -14.4 69 69 NNE 10 17 30.14 1021 10 16.0934 N/A
4:35 pm 16:35 Cloudy 14 -10 6 -14.5 70 70 N 14 22 30.15 1021 10 16.0934 N/A
4:55 pm 16:55 Cloudy 14 -10 6 -14.6 69 69 N 15 24 30.15 1021 10 16.0934 N/A
5:15 pm 17:15 Cloudy 13 -10.3 5 -14.9 69 69 N 14 22 30.15 1021 10 16.0934 N/A
5:35 pm 17:35 Cloudy 13 -10.6 5 -15 70 70 N 14 22 30.16 1021 10 16.0934 N/A
6:15 pm 18:15 Cloudy 12 -11.2 4 -15.7 70 70 N 14 22 30.19 1022 10 16.0934 N/A
6:35 pm 18:35 Cloudy 11 -11.4 4 -15.6 71 71 N 18 30 30.21 1023 10 16.0934 N/A
6:55 pm 18:55 Cloudy 11 -11.7 3 -15.9 71 71 N 18 30 30.19 1022 10 16.0934 N/A
7:15 pm 19:15 Cloudy 10 -12 3 -16 72 72 N 17 28 30.2 1023 10 16.0934 N/A
7:35 pm 19:35 Cloudy 10 -12.2 3 -16.2 72 72 N 18 30 30.21 1023 10 16.0934 N/A
7:55 pm 19:55 Cloudy 10 -12.3 3 -16.2 73 73 N 17 28 30.2 1023 10 16.0934 N/A
8:15 pm 20:15 Cloudy 10 -12.5 2 -16.4 73 73 N 21 33 30.21 1023 10 16.0934 N/A
8:35 pm 20:35 Cloudy 9 -12.8 2 -16.9 72 72 N 12 19 30.28 1025 10 16.0934 N/A
8:55 pm 20:55 Cloudy with Snow 9 -13 2 -16.5 75 75 N 20 31 30.22 1023 1.25 2.011675 N/A
9:15 pm 21:15 Cloudy with Snow 8 -13.6 3 -16.2 81 81 N 18 30 30.27 1025 0.75 1.207005 N/A
9:35 pm 21:35 Windy with Snow Likely 7 -13.8 2 -16.7 79 79 N 23 37 30.23 1024 3 4.82802 N/A
9:55 pm 21:55 Cloudy with Light Snow 7 -13.7 1 -17.2 75 75 NNW 12 19 30.3 1026 7 11.26538 N/A
10:15 pm 22:15 Cloudy 7 -13.8 -1 -18.2 70 70 N 18 30 30.28 1025 10 16.0934 N/A
10:35 pm 22:35 Cloudy 7 -14 -1 -18.2 71 71 NNW 16 26 30.31 1027 10 16.0934 N/A
10:55 pm 22:55 Cloudy with Light Snow 6 -14.4 -1 -18.5 71 71 N 18 30 30.3 1026 1.5 2.41401 N/A
11:15 pm 23:15 Cloudy with Light Snow 6 -14.3 0 -17.8 75 75 NNW 16 26 30.3 1026 3 4.82802 N/A
11:35 pm 23:35 Cloudy with Light Snow 6 -14.6 -1 -18.3 74 74 NNW 16 26 30.33 1027 1.75 2.816345 0.01 0.254
11:55 pm 23:55 Cloudy with Light Snow 6 -14.7 -2 -18.9 71 71 NNW 10 17 30.34 1028 5 8.0467 0.01 0.254

Powered by AerisWeather